FW4761 Weather Reports


Display with metric or nautical units.
time (UTC)temp
F
wind
direction
speed
MPH
gust
MPH
rain 1hr
in
rain 24hr
in
rain mn
in
humidity
%
barometer
mb
20260505153359 76 256 11.0 18.0 0.00 0.00 0.00 71 968.2
20260505152356 76 0 10.0 19.0 0.00 0.00 0.00 71 968.1
20260505151856 76 221 10.0 19.0 0.00 0.00 0.00 71 968.1
20260505151355 76 227 10.0 19.0 0.00 0.00 0.00 72 968.0
20260505150855 76 208 12.0 22.0 0.00 0.00 0.00 72 968.1
20260505150356 76 217 12.0 22.0 0.00 0.00 0.00 72 968.0
20260505124826 69 234 10.0 18.0 0.00 0.00 0.00 82 967.7
20260505124320 69 237 10.0 18.0 0.00 0.00 0.00 82 967.7
20260505123814 69 202 10.0 18.0 0.00 0.00 0.00 82 967.7
20260505123308 69 234 9.0 18.0 0.00 0.00 0.00 83 967.5
20260505122802 69 239 8.0 16.0 0.00 0.00 0.00 83 967.4
20260505122257 69 230 8.0 18.0 0.00 0.00 0.00 83 967.4
20260505121750 68 211 9.0 18.0 0.00 0.00 0.00 83 967.4
20260505120738 68 180 7.0 17.0 0.00 0.00 0.00 83 967.3
20260505115727 68 238 6.0 15.0 0.00 0.00 0.00 83 967.2
20260505115221 68 227 6.0 15.0 0.00 0.00 0.00 83 967.1
20260505114714 68 223 6.0 13.0 0.00 0.00 0.00 83 967.1
20260505114209 68 225 6.0 13.0 0.00 0.00 0.00 83 967.1
20260505113703 68 213 6.0 13.0 0.00 0.00 0.00 83 967.0
20260505113156 68 211 6.0 13.0 0.00 0.00 0.00 83 967.0
20260505112651 68 240 6.0 11.0 0.00 0.00 0.00 83 967.0
20260505112144 68 218 6.0 11.0 0.00 0.00 0.00 83 967.0
20260505111638 68 229 6.0 11.0 0.00 0.00 0.00 83 967.2
20260505111132 68 232 6.0 11.0 0.00 0.00 0.00 83 967.1
20260505110121 68 219 6.0 14.0 0.00 0.00 0.00 83 967.0
20260505101016 69 194 7.0 14.0 0.00 0.00 0.00 82 967.1
20260505100511 69 213 7.0 11.0 0.00 0.00 0.00 81 967.2
20260505100004 69 223 6.0 11.0 0.00 0.00 0.00 81 967.3
20260505094501 69 192 7.0 11.0 0.00 0.00 0.00 81 967.0
20260505094000 69 215 7.0 10.0 0.00 0.00 0.00 81 967.2
20260505093501 69 207 7.0 10.0 0.00 0.00 0.00 80 967.3
20260505093002 69 205 7.0 10.0 0.00 0.00 0.00 80 967.2
20260505092501 69 217 7.0 13.0 0.00 0.00 0.00 80 967.2
20260505092001 69 207 8.0 13.0 0.00 0.00 0.00 80 967.2
20260505091501 69 188 8.0 12.0 0.00 0.00 0.00 80 967.2
20260505091001 70 199 8.0 12.0 0.00 0.00 0.00 80 967.3
20260505090458 70 188 7.0 11.0 0.00 0.00 0.00 79 967.3
20260505090000 70 203 7.0 10.0 0.00 0.00 0.00 79 967.3
20260505085459 70 183 7.0 10.0 0.00 0.00 0.00 79 967.3
20260505083956 71 212 6.0 10.0 0.00 0.00 0.00 78 967.5
20260505083501 71 229 6.0 12.0 0.00 0.00 0.00 78 967.6
20260505082957 71 223 6.0 12.0 0.00 0.00 0.00 77 967.4
20260505082457 71 227 7.0 13.0 0.00 0.00 0.00 77 967.4
20260505081955 71 208 7.0 13.0 0.00 0.00 0.00 77 967.3
20260505080947 71 0 6.0 11.0 0.00 0.00 0.00 77 967.4
20260505080450 71 0 6.0 12.0 0.00 0.00 0.00 76 967.4
20260505075946 71 206 6.0 12.0 0.00 0.00 0.00 76 967.4
20260505075444 72 188 6.0 12.0 0.00 0.00 0.00 76 967.5
20260505074944 72 198 6.0 12.0 0.00 0.00 0.00 76 967.6
20260505074445 72 189 7.0 13.0 0.00 0.00 0.00 76 967.6
20260505073944 72 187 8.0 13.0 0.00 0.00 0.00 75 967.7
20260505073445 72 202 8.0 15.0 0.00 0.00 0.00 75 967.8
20260505072941 72 219 9.0 16.0 0.00 0.00 0.00 75 967.9
20260505071940 72 202 8.0 14.0 0.00 0.00 0.00 75 968.1
20260505071440 72 198 8.0 15.0 0.00 0.00 0.00 75 968.3
20260505070941 72 213 8.0 15.0 0.00 0.00 0.00 75 968.3
20260505070441 73 236 8.0 16.0 0.00 0.00 0.00 75 968.6
20260505065441 73 184 8.0 15.0 0.00 0.00 0.00 74 968.8
20260505064941 73 207 8.0 17.0 0.00 0.00 0.00 74 968.8
20260505064441 73 201 9.0 17.0 0.00 0.00 0.00 74 968.9
20260505063941 73 222 9.0 16.0 0.00 0.00 0.00 74 969.0
20260505063440 73 175 9.0 16.0 0.00 0.00 0.00 74 969.0
20260505062940 73 213 10.0 17.0 0.00 0.00 0.00 73 969.0
20260505061941 73 215 9.0 19.0 0.00 0.00 0.00 73 969.0
20260505061440 73 201 9.0 19.0 0.00 0.00 0.00 73 968.9
20260505060940 74 197 9.0 16.0 0.00 0.00 0.00 73 969.0
20260505060441 74 186 9.0 16.0 0.00 0.00 0.00 73 969.1
20260505054934 74 187 8.0 15.0 0.00 0.00 0.00 73 969.1
20260505054434 74 228 9.0 17.0 0.00 0.00 0.00 73 969.2
20260505053934 74 185 9.0 21.0 0.00 0.00 0.00 73 969.3
20260505053436 74 204 9.0 21.0 0.00 0.00 0.00 73 969.3
20260505052432 73 194 8.0 17.0 0.00 0.00 0.00 73 969.2
20260505051931 73 186 8.0 16.0 0.00 0.00 0.00 74 969.2
20260505051430 73 192 9.0 17.0 0.00 0.00 0.00 74 969.2
20260505050428 73 183 9.0 15.0 0.00 0.00 0.00 74 969.2
20260505041411 73 198 9.0 16.0 0.00 0.00 0.00 74 969.4
20260505040905 73 205 9.0 17.0 0.00 0.00 0.00 74 969.4
20260505040359 73 178 10.0 19.0 0.00 0.00 0.00 74 969.3
20260505034841 73 176 11.0 17.0 0.00 0.00 0.00 74 969.4
20260505034335 73 180 11.0 18.0 0.00 0.00 0.00 74 969.4
20260505033828 73 186 12.0 18.0 0.00 0.00 0.00 74 969.5
20260505032817 73 178 11.0 20.0 0.00 0.00 0.00 74 969.4
20260505032311 73 190 11.0 20.0 0.00 0.00 0.00 73 969.4
20260505031805 73 185 10.0 20.0 0.00 0.00 0.00 73 969.4
20260505031259 73 179 10.0 19.0 0.00 0.00 0.00 73 969.5
20260505030753 73 180 10.0 19.0 0.00 0.00 0.00 73 969.4
20260505030247 73 174 9.0 16.0 0.00 0.00 0.00 73 969.5
20260505025741 73 188 9.0 16.0 0.00 0.00 0.00 73 969.5
20260505025234 73 179 9.0 17.0 0.00 0.00 0.00 73 969.4
20260505024728 73 192 10.0 17.0 0.00 0.00 0.00 73 969.4
20260505023717 73 175 9.0 16.0 0.00 0.00 0.00 73 969.3
20260505023211 73 186 9.0 17.0 0.00 0.00 0.00 73 969.4
20260505022159 74 186 8.0 17.0 0.00 0.00 0.00 72 969.3
20260505021653 74 183 8.0 17.0 0.00 0.00 0.00 72 969.4
20260505021147 74 209 9.0 15.0 0.00 0.00 0.00 71 969.4
20260505020640 74 182 9.0 16.0 0.00 0.00 0.00 71 969.4
20260505020135 74 179 9.0 14.0 0.00 0.00 0.00 71 969.4
20260505015123 75 198 9.0 17.0 0.00 0.00 0.00 70 969.3
20260505014616 75 182 9.0 17.0 0.00 0.00 0.00 69 969.2
20260505014111 75 182 9.0 14.0 0.00 0.00 0.00 69 969.3
20260505013605 75 245 9.0 16.0 0.00 0.00 0.00 69 969.3
20260505013059 76 192 9.0 16.0 0.00 0.00 0.00 68 969.2
20260505012046 76 202 9.0 16.0 0.00 0.00 0.00 68 969.4
20260505010529 77 167 10.0 17.0 0.00 0.00 0.00 66 969.3
20260505005011 77 165 11.0 20.0 0.00 0.00 0.00 65 969.3
20260505004505 78 206 11.0 21.0 0.00 0.00 0.00 64 969.3
20260505003959 78 204 11.0 21.0 0.00 0.00 0.00 64 969.3
20260505003453 78 184 12.0 23.0 0.00 0.00 0.00 64 969.3
20260505002947 78 194 13.0 23.0 0.00 0.00 0.00 63 969.3
20260505001934 79 161 14.0 26.0 0.00 0.00 0.00 63 969.4
20260505001431 79 223 14.0 25.0 0.00 0.00 0.00 62 969.4
20260505000930 79 174 13.0 24.0 0.00 0.00 0.00 62 969.5
20260505000431 79 182 12.0 22.0 0.00 0.00 0.00 62 969.5
20260504235931 80 170 13.0 23.0 0.00 0.00 0.00 62 969.4
20260504235431 80 165 14.0 26.0 0.00 0.00 0.00 61 969.6
20260504234931 80 223 14.0 28.0 0.00 0.00 0.00 61 969.6
20260504233931 80 178 12.0 26.0 0.00 0.00 0.00 61 969.4
20260504232931 81 179 12.0 24.0 0.00 0.00 0.00 60 969.5
20260504231930 81 164 11.0 20.0 0.00 0.00 0.00 60 969.5
20260504230927 81 165 14.0 22.0 0.00 0.00 0.00 59 969.6
20260504225927 82 184 15.0 26.0 0.00 0.00 0.00 58 969.5
20260504225426 82 175 13.0 26.0 0.00 0.00 0.00 58 969.6
20260504224926 82 171 13.0 26.0 0.00 0.00 0.00 58 969.7
20260504224427 82 163 13.0 27.0 0.00 0.00 0.00 57 969.5
20260504223926 83 171 13.0 27.0 0.00 0.00 0.00 57 969.6
20260504222927 83 209 14.0 27.0 0.00 0.00 0.00 57 969.9
20260504222426 83 214 13.0 27.0 0.00 0.00 0.00 57 969.9
20260504221927 83 202 13.0 25.0 0.00 0.00 0.00 56 969.8
20260504221427 83 195 14.0 26.0 0.00 0.00 0.00 56 969.9
20260504220927 83 200 16.0 26.0 0.00 0.00 0.00 56 969.9
20260504220426 83 207 15.0 24.0 0.00 0.00 0.00 56 969.9
20260504214424 83 176 14.0 24.0 0.00 0.00 0.00 57 970.3
20260504213918 83 234 15.0 24.0 0.00 0.00 0.00 57 970.3
20260504213412 83 202 13.0 24.0 0.00 0.00 0.00 56 970.4
20260504212404 82 190 17.0 29.0 0.00 0.00 0.00 56 970.6
20260504211904 82 199 15.0 28.0 0.00 0.00 0.00 57 970.7
20260504211405 83 165 14.0 24.0 0.00 0.00 0.00 56 970.8
20260504210404 83 179 14.0 27.0 0.00 0.00 0.00 57 971.1
20260504205902 83 195 15.0 26.0 0.00 0.00 0.00 56 971.2
20260504205402 82 159 15.0 26.0 0.00 0.00 0.00 56 971.2
20260504204903 82 181 15.0 27.0 0.00 0.00 0.00 57 971.3
20260504203358 82 172 14.0 28.0 0.00 0.00 0.00 56 971.5
20260504202859 82 165 14.0 23.0 0.00 0.00 0.00 57 971.5
20260504202358 82 178 14.0 27.0 0.00 0.00 0.00 56 971.8
20260504201859 82 180 14.0 27.0 0.00 0.00 0.00 56 972.0
20260504201357 82 190 14.0 27.0 0.00 0.00 0.00 57 972.2
20260504200856 82 178 15.0 29.0 0.00 0.00 0.00 58 972.2
20260504200400 82 172 15.0 29.0 0.00 0.00 0.00 57 972.2
20260504195853 81 161 15.0 25.0 0.00 0.00 0.00 57 972.3
20260504195347 81 159 14.0 25.0 0.00 0.00 0.00 57 972.4
20260504194842 81 196 13.0 22.0 0.00 0.00 0.00 57 972.6
20260504194336 80 154 14.0 26.0 0.00 0.00 0.00 59 972.7
20260504193829 80 205 14.0 26.0 0.00 0.00 0.00 58 972.9
20260504192817 80 223 15.0 27.0 0.00 0.00 0.00 57 973.0
20260504192311 80 168 14.0 27.0 0.00 0.00 0.00 58 973.1
20260504191806 80 169 14.0 24.0 0.00 0.00 0.00 58 973.2
20260504191300 80 182 14.0 25.0 0.00 0.00 0.00 59 973.2
20260504190753 80 193 13.0 25.0 0.00 0.00 0.00 58 973.3
20260504185741 80 185 13.0 24.0 0.00 0.00 0.00 57 973.2
20260504184730 80 221 13.0 22.0 0.00 0.00 0.00 58 973.4
20260504184224 80 155 13.0 24.0 0.00 0.00 0.00 58 973.5
20260504183719 79 169 13.0 24.0 0.00 0.00 0.00 59 973.6
20260504183211 79 191 13.0 24.0 0.00 0.00 0.00 59 973.7
20260504182159 79 175 12.0 21.0 0.00 0.00 0.00 59 973.7
20260504181653 78 153 13.0 21.0 0.00 0.00 0.00 61 973.9
20260504181147 77 193 13.0 26.0 0.00 0.00 0.00 61 973.9
20260504180641 77 173 13.0 26.0 0.00 0.00 0.00 60 974.0
20260504180135 77 173 14.0 24.0 0.00 0.00 0.00 60 974.1
20260504175134 77 0 13.0 23.0 0.00 0.00 0.00 61 974.4
20260504174634 77 0 12.0 24.0 0.00 0.00 0.00 61 974.5
20260504173634 76 186 14.0 29.0 0.00 0.00 0.00 61 974.5
20260504173134 76 211 14.0 24.0 0.00 0.00 0.00 61 974.5
20260504172634 76 176 14.0 24.0 0.00 0.00 0.00 61 974.5
20260504172134 76 198 15.0 27.0 0.00 0.00 0.00 61 974.6
20260504171634 75 186 14.0 27.0 0.00 0.00 0.00 61 974.8
20260504171135 75 172 12.0 24.0 0.00 0.00 0.00 61 974.8
20260504170634 75 173 13.0 26.0 0.00 0.00 0.00 62 975.0
20260504170133 75 162 14.0 26.0 0.00 0.00 0.00 62 974.9